This is the latest recevied weather packets stored in our database for station/object K5NCO. If no packets are shown the sender has not sent any weather packets the latest 10 day(s).
| Time | Temp. | Humidity | Pressure | Rain* | Wind** | Luminosity | Snow |
|---|---|---|---|---|---|---|---|
| 1777662853 | 13.33° C | 99% | 1014.2 hPa | 0 mm | - | 78 W/m² | - |
| 1777662550 | 13.33° C | 99% | 1013.9 hPa | 0 mm | - | 115 W/m² | - |
| 1777662245 | 13.33° C | 99% | 1013.5 hPa | 0 mm | - | 148 W/m² | - |
| 1777661940 | 13.33° C | 99% | 1013.1 hPa | 0 mm | - | 160 W/m² | - |
| 1777661636 | 13.89° C | 99% | 1013 hPa | 0 mm | - | 208 W/m² | - |
| 1777661332 | 13.89° C | 99% | 1013.4 hPa | 0 mm | - | 260 W/m² | - |
| 1777661029 | 13.33° C | 99% | 1014 hPa | 1.78 mm | - | 253 W/m² | - |
| 1777660724 | 13.33° C | 99% | 1014.8 hPa | 3.05 mm | - | 182 W/m² | - |
| 1777660422 | 13.89° C | 99% | 1015.3 hPa | 4.32 mm | - | 198 W/m² | - |
| 1777660118 | 13.33° C | 99% | 1015.7 hPa | 9.65 mm | - | 211 W/m² | - |
| 1777659815 | 13.33° C | 99% | 1016.6 hPa | 16.76 mm | - | 195 W/m² | - |
| 1777659512 | 13.33° C | 99% | 1017.1 hPa | 14.99 mm | - | 103 W/m² | - |
| 1777659209 | 13.33° C | 99% | 1017.2 hPa | 6.1 mm | - | 59 W/m² | - |
| 1777658906 | 13.33° C | 99% | 1017 hPa | 1.78 mm | - | 21 W/m² | - |
| 1777658602 | 13.33° C | 99% | 1016.2 hPa | 1.78 mm | - | 30 W/m² | - |
| 1777658300 | 13.33° C | 99% | 1015.4 hPa | 1.78 mm | - | 27 W/m² | - |
| 1777657996 | 13.33° C | 99% | 1014.9 hPa | 1.27 mm | - | 55 W/m² | - |
| 1777657693 | 13.33° C | 99% | 1014.9 hPa | 1.27 mm | - | 69 W/m² | - |
| 1777657390 | 13.33° C | 99% | 1014.7 hPa | 0 mm | - | 69 W/m² | - |
| 1777657088 | 13.33° C | 99% | 1014.8 hPa | 0 mm | - | 50 W/m² | - |
| 1777656785 | 13.33° C | 99% | 1015 hPa | 0 mm | - | 40 W/m² | - |
| 1777656480 | 13.33° C | 99% | 1015 hPa | 0 mm | - | 36 W/m² | - |
| 1777656176 | 13.33° C | 99% | 1015.1 hPa | 0 mm | - | 42 W/m² | - |
| 1777655866 | 13.33° C | 99% | 1014.9 hPa | 0 mm | - | 46 W/m² | - |
| 1777655563 | 13.89° C | 99% | 1014.6 hPa | 0 mm | - | 51 W/m² | - |
* Rain latest hour (hover to see other rain measurements)
** Current wind speed in m/s (hover to see current wind gust speed)